Portage, MI

4:13 PM EDT on August 28, 2016 (GMT -0400)
Kalamazoo-Battle Creek International

Weather History for KAZO - December, 2008

Change the Weather History Date:

Tuesday, December 2, 2008

  Actual Average Record
Temperature  
Mean Temperature 24 °F 33 °F  
Max Temperature 28 °F 40 °F 67 °F (1982)
Min Temperature 1 °F 27 °F 1 °F (2008)
Degree Days  
Heating Degree Days 40 32  
Month to date heating degree days 63  
Since 1 July heating degree days 1390  
Cooling Degree Days 0 0  
Month to date cooling degree days 0  
Year to date cooling degree days 675  
Moisture  
Dew Point 18 °F    
Average Humidity 77    
Maximum Humidity 86    
Minimum Humidity 69    
Precipitation  
Precipitation 0.01 in 0.08 in 0.63 in (1980)
Month to date precipitation 0.17  
Year to date precipitation 33.93  
Snow  
Snow 0.00 in - - ()
Snow Depth 3.00 in    
Sea Level Pressure  
Sea Level Pressure 30.01 in    
Wind  
Wind Speed 12 mph (SSW)    
Max Wind Speed 20 mph    
Max Gust Speed 29 mph    
Visibility 5 miles    
Events Snow    
T = Trace of Precipitation, MM = Missing Value Source: NWS Daily Summary

Daily Weather History Graph

Daily Weather History Graph

Search for Another Location

Airport or City:

Trip Planner

Search our weather history database for the weather conditions in past years. The results will help you decide how hot, cold, wet, or windy it might be!

Date:

Astronomy

Dec. 02, 2008 Rise Set
Actual Time 7:52 AM EST 5:10 PM EST
Civil Twilight 7:21 AM EST 5:41 PM EST
Nautical Twilight 6:46 AM EST 6:16 PM EST
Astronomical Twilight 6:12 AM EST 6:50 PM EST
Moon 11:40 AM EST (12/2) 9:33 PM EST (12/2)
Length of Visible Light 10h 20m
Length of Day
9h 17m
Waxing Crescent, 21% of the Moon is Illuminated
Dec 2
Waxing Crescent
Dec 5
First Quarter
Dec 12
Full
Dec 19
Last Quarter
Dec 27
New

Hourly Weather History & Observations

Time (EST) Temp. Windchill Dew Point Humidity Pressure Visibility Wind Dir Wind Speed Gust Speed Precip Events Conditions
12:53 AM 27.0 °F 16.7 °F 21.0 °F 78% 29.88 in 4.0 mi WSW 11.5 mph 18.4 mph 0.01 in Snow Light Snow
1:07 AM 26.6 °F 16.8 °F 21.2 °F 80% 29.86 in 4.0 mi WSW 10.4 mph - 0.00 in Snow Light Snow
1:53 AM 26.1 °F 16.2 °F 21.0 °F 81% 29.91 in 4.0 mi WSW 10.4 mph - 0.00 in Snow Light Snow
2:45 AM 26.6 °F 15.7 °F 19.4 °F 74% 29.90 in 8.0 mi WSW 12.7 mph - 0.00 in   Overcast
2:53 AM 25.0 °F 14.8 °F 19.0 °F 78% 29.94 in 7.0 mi WSW 10.4 mph - 0.00 in Snow Light Snow
3:53 AM 24.1 °F 12.5 °F 18.0 °F 77% 29.96 in 6.0 mi SW 12.7 mph - 0.00 in   Haze
4:53 AM 23.0 °F 12.4 °F 17.1 °F 78% 29.98 in 7.0 mi SW 10.4 mph - N/A   Overcast
5:53 AM 21.9 °F 10.4 °F 16.0 °F 78% 30.01 in 7.0 mi SW 11.5 mph - 0.00 in Snow Light Snow
6:53 AM 21.9 °F 9.8 °F 16.0 °F 78% 30.02 in 7.0 mi SSW 12.7 mph - 0.00 in Snow Light Snow
7:53 AM 21.9 °F 9.8 °F 16.0 °F 78% 30.04 in 5.0 mi SSW 12.7 mph - 0.00 in Snow Light Snow
8:14 AM 21.2 °F 10.1 °F 15.8 °F 80% 30.01 in 2.0 mi SSW 10.4 mph - 0.00 in Snow Light Snow
8:24 AM 21.2 °F 8.3 °F 15.8 °F 80% 30.01 in 2.0 mi SSW 13.8 mph - 0.00 in Snow Light Snow
8:53 AM 21.9 °F 9.2 °F 16.0 °F 78% 30.06 in 1.8 mi SSW 13.8 mph - 0.00 in Snow Light Snow
9:12 AM 21.2 °F 9.5 °F 17.6 °F 86% 30.03 in 0.8 mi SSW 11.5 mph - 0.00 in Snow Light Snow
9:49 AM 21.2 °F 8.9 °F 17.6 °F 86% 30.03 in 1.0 mi SSW 12.7 mph - 0.00 in Snow Light Snow
9:53 AM 21.9 °F 9.8 °F 17.1 °F 82% 30.06 in 1.2 mi SSW 12.7 mph - 0.00 in Snow Light Snow
10:17 AM 21.2 °F 7.3 °F 15.8 °F 80% 30.03 in 2.5 mi SSW 16.1 mph 23.0 mph 0.00 in Snow Light Snow
10:35 AM 21.2 °F 9.5 °F 15.8 °F 80% 30.04 in 3.0 mi SSW 11.5 mph - 0.00 in   Haze
10:45 AM 21.2 °F 9.5 °F 15.8 °F 80% 30.04 in 7.0 mi SSW 11.5 mph - 0.00 in   Scattered Clouds
10:53 AM 21.9 °F 8.7 °F 15.1 °F 75% 30.08 in 7.0 mi SSW 15.0 mph - 0.00 in   Scattered Clouds
11:46 AM 21.2 °F 9.5 °F 14.0 °F 74% 30.04 in 5.0 mi SW 11.5 mph - 0.00 in Snow Light Snow
11:53 AM 21.9 °F 10.4 °F 15.1 °F 75% 30.08 in 4.0 mi SW 11.5 mph - 0.00 in Snow Light Snow
12:53 PM 23.0 °F 9.6 °F 15.1 °F 72% 30.06 in 4.0 mi SW 16.1 mph 21.9 mph 0.00 in Snow Light Snow
1:53 PM 24.1 °F 11.0 °F 17.1 °F 75% 30.06 in 3.0 mi SW 16.1 mph - 0.00 in Snow Light Snow
2:53 PM 25.0 °F 14.8 °F 18.0 °F 75% 30.04 in 4.0 mi SW 10.4 mph - 0.00 in Snow Light Snow
3:53 PM 26.1 °F 14.0 °F 18.0 °F 71% 30.03 in 5.0 mi SSW 15.0 mph 23.0 mph 0.00 in   Haze
4:02 PM 26.6 °F 15.7 °F 17.6 °F 69% 29.98 in 6.0 mi SSW 12.7 mph 23.0 mph N/A   Haze
4:53 PM 26.1 °F 14.0 °F 18.0 °F 71% 30.02 in 8.0 mi South 15.0 mph - N/A   Clear
5:53 PM 26.1 °F 14.0 °F 18.0 °F 71% 30.02 in 8.0 mi South 15.0 mph - N/A   Clear
6:53 PM 26.1 °F 15.6 °F 18.0 °F 71% 30.02 in 8.0 mi South 11.5 mph 21.9 mph N/A   Clear
7:53 PM 26.1 °F 12.3 °F 19.0 °F 75% 30.01 in 8.0 mi South 19.6 mph - N/A   Clear
8:53 PM 27.0 °F 15.2 °F 19.0 °F 72% 30.01 in 8.0 mi South 15.0 mph 23.0 mph N/A   Clear
9:53 PM 28.0 °F 15.3 °F 21.0 °F 75% 29.99 in 7.0 mi South 18.4 mph 28.8 mph N/A   Overcast
10:53 PM 28.9 °F 17.3 °F 21.0 °F 72% 30.00 in 7.0 mi South 16.1 mph 21.9 mph N/A   Overcast
11:53 PM 1.0 °F -17.3 °F - N/A% 30.02 in 8.0 mi South 13.8 mph - N/A   Overcast